Regional Weather Roundup
Issued by NWS

Home | Current Version | Previous Version | Text Only | Print | Product List | Glossary On
Versions: 1 2 3 4 5 6 7 8 9 10 11 12 13 14 15 16 17 18 19 20 21 22 23 24 25 26 27 28 29 30 31 32 33 34 35 36 37 38 39 40 41 42 43 44 45 46 47 48 49 50
000
ASUS44 KLIX 310510
RWRLA
LOUISIANA WEATHER ROUNDUP
NATIONAL WEATHER SERVICE NEW ORLEANS LA
1200 AM CDT SAT JUL 31 2021

NOTE: "FAIR" INDICATES FEW OR NO CLOUDS BELOW 12,000 FEET WITH NO
      SIGNIFICANT WEATHER AND/OR OBSTRUCTIONS TO VISIBILITY.
      SKY/WX - SKY CONDITION AND SIGNIFICANT WEATHER.
      TMP - AIR TEMPERATURE.    DP   - DEWPOINT TEMPERATURE.
      RH  - RELATIVE HUMIDITY.  PRES - PRESSURE.
      HX  - HEAT INDEX.         WCI  - WIND CHILL INDEX.

*  THESE STATIONS ARE NOT NWS OR FAA STATIONS AND ARE NOT UNDER
   NWS QUALITY CONTROL.

LAZ048-061-063-065-066-069-076-077-310600-
SOUTHEAST LOUISIANA

CITY           SKY/WX    TMP DP  RH WIND       PRES   REMARKS
N.O. INTL ARPT PTCLDY    84  79  85 CALM      30.04S HX  96
N.O. DWNTWN HE FAIR      86  79  79 SW3       30.05F HX  99
N.O. LAKEFRONT PTCLDY    87  80  79 W7        30.04S HX 103
RESERVE*       FAIR      81  77  88 CALM      30.04F
SLIDELL        CLEAR     83  78  85 CALM      30.03S
BATON ROUGE    PTCLDY    81  77  88 MISG      30.04R
BOOTHVILLE*    NOT AVBL
BELLE CHASSE*  PTCLDY    80  80 100 CALM      30.04S
BOGALUSA*        N/A     81  77  88 CALM      30.05S
GALLIANO*      CLEAR     80  76  89 CALM      30.05S
NEW ROADS*     FAIR      81  80  96 SW3       30.04F
GONZALES*      FAIR      80  77  91 CALM      30.04S
HAMMOND*       PTCLDY    79  77  94 CALM      30.04S
HOUMA*         NOT AVBL

$$

LAZ041-044-053-054-310600-
SOUTHWEST LOUISIANA

CITY           SKY/WX    TMP DP  RH WIND       PRES   REMARKS
LAKE CHARLES   CLEAR     82  79  90 SW3       30.04F
LAFAYETTE      CLEAR     82  75  79 SW3       30.04F
PATTERSON      CLEAR     79  79 100 CALM      30.05S
SALT POINT       N/A     86  78  77 VRB3      30.03S HX  98
NEW IBERIA     CLEAR     80  78  94 CALM      30.05S
CHENAULT AIRPK CLEAR     85  76  75 SW5       30.04S

$$

LAZ027-028-310600-
CENTRAL LOUISIANA

CITY           SKY/WX    TMP DP  RH WIND       PRES   REMARKS
FORT POLK      CLEAR     82  78  90 SW3       30.04S
ALEXANDRIA INT CLEAR     83  77  82 CALM      30.02S
ALEXANDRIA     CLEAR     80  78  94 CALM      30.03S FOG

$$

LAZ001-002-310600-
NORTHWEST LOUISIANA

CITY           SKY/WX    TMP DP  RH WIND       PRES   REMARKS
SHREVEPORT     CLEAR     84  76  76 CALM      30.03S
BARKSDALE AFB  CLEAR     81  76  84 CALM      30.02S
DTN SHREVEPORT CLEAR     86  77  74 CALM      30.03R HX  97

$$

LAZ014-016-310600-
NORTHEAST LOUISIANA

CITY           SKY/WX    TMP DP  RH WIND       PRES   REMARKS
MONROE         CLEAR     81  78  91 CALM      30.04R
TALLULAH       CLEAR     81  76  84 CALM      30.03F

$$




USA.gov is the U.S. government's official web portal to all federal, state and local government web resources and services.